TimeCDT,TemperatureF,Dew PointF,Humidity,Sea Level PressureIn,VisibilityMPH,Wind Direction,Wind SpeedMPH,Gust SpeedMPH,PrecipitationIn,Events,Conditions,WindDirDegrees,DateUTC
12:17 AM,60.8,57.2,88,29.89,1.0,Calm,Calm,-,N/A,,Mist,0,2013-06-24 05:17:00
12:24 AM,57.2,57.2,100,29.89,0.8,Calm,Calm,-,N/A,,Mist,0,2013-06-24 05:24:00
12:27 AM,59.0,57.2,94,29.89,2.5,Calm,Calm,-,N/A,,Clear,0,2013-06-24 05:27:00
12:34 AM,60.8,57.2,88,29.89,10.0,Calm,Calm,-,N/A,,Clear,0,2013-06-24 05:34:00
12:53 AM,57.9,57.0,97,29.89,5.0,Calm,Calm,-,N/A,,Clear,0,2013-06-24 05:53:00
1:21 AM,57.2,55.4,94,29.90,1.2,Calm,Calm,-,N/A,,Clear,0,2013-06-24 06:21:00
1:23 AM,57.2,55.4,94,29.90,0.8,Calm,Calm,-,N/A,,Mist,0,2013-06-24 06:23:00
1:39 AM,57.2,57.2,100,29.90,1.2,Calm,Calm,-,N/A,,Scattered Clouds,0,2013-06-24 06:39:00
1:48 AM,57.2,57.2,100,29.90,1.5,Calm,Calm,-,N/A,,Mostly Cloudy,0,2013-06-24 06:48:00
1:53 AM,57.9,57.0,97,29.90,4.0,Calm,Calm,-,N/A,,Scattered Clouds,0,2013-06-24 06:53:00
2:01 AM,55.4,55.4,100,29.91,1.8,Calm,Calm,-,N/A,,Scattered Clouds,0,2013-06-24 07:01:00
2:04 AM,55.4,55.4,100,29.91,0.8,Calm,Calm,-,N/A,,Mist,0,2013-06-24 07:04:00
2:18 AM,57.2,55.4,94,29.91,1.5,Calm,Calm,-,N/A,,Scattered Clouds,0,2013-06-24 07:18:00
2:20 AM,57.2,55.4,94,29.91,4.0,Calm,Calm,-,N/A,,Scattered Clouds,0,2013-06-24 07:20:00
2:53 AM,55.9,55.0,97,29.91,9.0,Calm,Calm,-,N/A,,Partly Cloudy,0,2013-06-24 07:53:00
3:29 AM,55.4,53.6,94,29.91,1.5,Calm,Calm,-,N/A,,Scattered Clouds,0,2013-06-24 08:29:00
3:32 AM,55.4,53.6,94,29.91,0.8,Calm,Calm,-,N/A,,Mist,0,2013-06-24 08:32:00
3:41 AM,55.4,53.6,94,29.90,1.2,Calm,Calm,-,N/A,,Scattered Clouds,0,2013-06-24 08:41:00
3:47 AM,55.4,53.6,94,29.90,2.0,Calm,Calm,-,N/A,,Mostly Cloudy,0,2013-06-24 08:47:00
3:53 AM,54.0,54.0,100,29.90,1.5,Calm,Calm,-,N/A,,Mostly Cloudy,0,2013-06-24 08:53:00
4:01 AM,55.4,53.6,94,29.90,3.0,Calm,Calm,-,N/A,,Mostly Cloudy,0,2013-06-24 09:01:00
4:35 AM,53.6,53.6,100,29.90,10.0,Calm,Calm,-,N/A,,Scattered Clouds,0,2013-06-24 09:35:00
4:53 AM,53.1,52.0,96,29.90,9.0,Calm,Calm,-,N/A,,Partly Cloudy,0,2013-06-24 09:53:00
5:53 AM,54.0,53.1,97,29.91,7.0,Calm,Calm,-,N/A,,Clear,0,2013-06-24 10:53:00
6:15 AM,55.4,53.6,94,29.92,10.0,Calm,Calm,-,N/A,,Partly Cloudy,0,2013-06-24 11:15:00
6:53 AM,61.0,59.0,93,29.93,10.0,Calm,Calm,-,N/A,,Clear,0,2013-06-24 11:53:00
7:53 AM,69.1,63.0,81,29.92,10.0,Calm,Calm,-,N/A,,Clear,0,2013-06-24 12:53:00
8:53 AM,72.0,62.1,71,29.91,10.0,Calm,Calm,-,N/A,,Clear,0,2013-06-24 13:53:00
9:53 AM,75.0,61.0,62,29.92,10.0,Calm,Calm,-,N/A,,Clear,0,2013-06-24 14:53:00
10:53 AM,78.1,57.9,50,29.92,10.0,WSW,4.6,-,N/A,,Clear,250,2013-06-24 15:53:00
11:53 AM,79.0,57.0,47,29.91,10.0,Variable,4.6,-,N/A,,Clear,0,2013-06-24 16:53:00
12:53 PM,81.0,59.0,47,29.89,10.0,South,6.9,-,N/A,,Partly Cloudy,180,2013-06-24 17:53:00
1:53 PM,80.1,57.9,47,29.88,10.0,South,11.5,-,N/A,,Clear,180,2013-06-24 18:53:00
2:53 PM,81.0,60.1,49,29.86,10.0,SSW,9.2,-,N/A,,Scattered Clouds,200,2013-06-24 19:53:00
3:53 PM,82.9,61.0,47,29.83,10.0,Variable,6.9,-,N/A,,Partly Cloudy,0,2013-06-24 20:53:00
4:53 PM,81.0,62.1,52,29.83,10.0,SSW,9.2,-,N/A,,Partly Cloudy,200,2013-06-24 21:53:00
5:53 PM,81.0,64.0,56,29.83,10.0,Calm,Calm,-,N/A,,Partly Cloudy,0,2013-06-24 22:53:00
6:53 PM,80.1,68.0,67,29.83,10.0,SSW,8.1,-,N/A,,Partly Cloudy,200,2013-06-24 23:53:00
7:53 PM,77.0,69.1,76,29.82,10.0,Variable,3.5,-,N/A,,Mostly Cloudy,0,2013-06-25 00:53:00
8:53 PM,75.0,68.0,79,29.82,10.0,Calm,Calm,-,N/A,,Clear,0,2013-06-25 01:53:00
9:53 PM,70.0,66.9,90,29.83,10.0,Calm,Calm,-,N/A,,Clear,0,2013-06-25 02:53:00
10:53 PM,68.0,66.9,96,29.83,9.0,Calm,Calm,-,N/A,,Clear,0,2013-06-25 03:53:00
11:04 PM,66.2,66.2,100,29.85,1.8,Calm,Calm,-,N/A,,Partly Cloudy,0,2013-06-25 04:04:00
11:10 PM,66.2,64.4,94,29.85,2.5,Calm,Calm,-,N/A,,Mostly Cloudy,0,2013-06-25 04:10:00
11:17 PM,66.2,64.4,94,29.85,6.0,Calm,Calm,-,N/A,,Mostly Cloudy,0,2013-06-25 04:17:00
11:49 PM,66.2,66.2,100,29.86,8.0,Calm,Calm,-,N/A,,Scattered Clouds,0,2013-06-25 04:49:00
11:53 PM,66.9,66.0,97,29.84,7.0,Calm,Calm,-,N/A,,Scattered Clouds,0,2013-06-25 04:53:00